This demonstration page uses our WeatherBlox Daily Observations layout. Learn more.

Left ArrowRight Arrow

39.95238, -75.16362

Hourly Observations for September 3, 2019

Temp ( °F °C ) Dew Point ( °F °C ) Humidity (%) Winds ( mph kmh ) Pressure ( in mb ) Visibility ( mi km ) Precip ( " mm )
12:20 am 00:20 Mostly Cloudy 73 22.8 70 21.1 90 90 Calm 30.00 1016 8 13 0.00 0.00
12:38 am 00:38 Mostly Cloudy 73 22.8 68 20 84 84 NNW 5 7 30.01 1016 10 16 0.00 0.00
12:54 am 00:54 Mostly Cloudy 73 22.8 67 19.4 81 81 NNW 8 13 30.00 1016 10 16 0.00 0.00
1:54 am 01:54 Mostly Cloudy 73 22.8 66 18.9 79 79 Calm 30.01 1016 10 16 0.00 0.00
2:54 am 02:54 Mostly Clear 70 21.1 65 18.3 84 84 N 8 13 30.00 1016 10 16 0.00 0.00
3:54 am 03:54 Mostly Clear 69 20.6 64 17.8 84 84 N 9 15 29.99 1016 10 16 0.00 0.00
4:54 am 04:54 Clear 68 20 64 17.8 87 87 N 5 7 29.99 1016 10 16 0.00 0.00
5:54 am 05:54 Clear 68 20 63 17.2 84 84 N 5 7 30.01 1016 10 16 0.00 0.00
6:54 am 06:54 Sunny 67 19.4 63 17.2 87 87 N 3 6 30.03 1017 10 16 0.00 0.00
7:54 am 07:54 Sunny 69 20.6 62 16.7 78 78 N 9 15 30.05 1018 10 16 0.00 0.00
8:54 am 08:54 Mostly Sunny 72 22.2 59 15 64 64 N 12 19 30.06 1018 10 16 0.00 0.00
9:54 am 09:54 Mostly Sunny 75 23.9 58 14.4 55 55 NE 10 17 30.07 1018 10 16 0.00 0.00
10:54 am 10:54 Mostly Sunny 77 25 58 14.4 52 52 E 8 13 30.06 1018 10 16 0.00 0.00
11:54 am 11:54 Partly Cloudy 80 26.7 57 13.9 45 45 ENE 10 17 30.05 1018 10 16 0.00 0.00
12:54 pm 12:54 Mostly Cloudy 82 27.8 56 13.3 41 41 E 7 11 30.04 1017 10 16 0.00 0.00
1:54 pm 13:54 Partly Cloudy 83 28.3 56 13.3 40 40 ESE 9 15 30.03 1017 10 16 0.00 0.00
2:54 pm 14:54 Mostly Sunny 86 30 54 12.2 33 33 VRB 3 6 30.02 1017 10 16 0.00 0.00
3:54 pm 15:54 Mostly Sunny 86 30 52 11.1 31 31 SSE 5 7 30.01 1016 10 16 0.00 0.00
4:54 pm 16:54 Partly Cloudy 85 29.4 52 11.1 32 32 Calm 30.00 1016 10 16 0.00 0.00
5:54 pm 17:54 Mostly Sunny 86 30 56 13.3 36 36 E 5 7 29.99 1016 10 16 0.00 0.00
6:54 pm 18:54 Mostly Sunny 82 27.8 61 16.1 49 49 S 10 17 30.00 1016 10 16 0.00 0.00
7:54 pm 19:54 Mostly Clear 78 25.6 65 18.3 64 64 S 8 13 30.00 1016 10 16 0.00 0.00
8:54 pm 20:54 Mostly Clear 75 23.9 63 17.2 66 66 SSE 7 11 30.01 1016 10 16 0.00 0.00
9:54 pm 21:54 Clear 72 22.2 61 16.1 68 68 SE 5 7 30.02 1017 10 16 0.00 0.00
10:54 pm 22:54 Mostly Clear 71 21.7 59 15 66 66 SE 3 6 30.02 1017 10 16 0.00 0.00
11:54 pm 23:54 Mostly Clear 71 21.7 62 16.7 73 73 SSW 3 6 30.03 1017 10 16 0.00 0.00

Powered by AerisWeather